Weather History for Palma De Mallorca / Son San Juan, Spain

Change the Weather History Date:

Thursday, February 14, 2013

  Actual Average Record
Temperature  
Mean Temperature 49 °F -  
Max Temperature 61 °F 59 °F - ()
Min Temperature 37 °F 40 °F - ()
Degree Days  
Heating Degree Days 16    
Moisture  
Dew Point 44 °F    
Average Humidity 82    
Maximum Humidity 93    
Minimum Humidity 47    
Precipitation  
Precipitation 0.00 in 0.05 in - ()
Sea Level Pressure  
Sea Level Pressure 30.16 in    
Wind  
Wind Speed 2 mph ()    
Max Wind Speed 12 mph    
Max Gust Speed -    
Visibility 6.8 miles    
Events      
T = Trace of Precipitation, MM = Missing Value Source: Averaged Metar Reports

Daily Weather History Graph

Daily Weather History Graph

Search for Another Location

Airport:

Trip Planner

Search our weather history database for the weather conditions in past years. The results will help you decide how hot, cold, wet, or windy it might be!

Date:

Astronomy

Feb. 14, 2013 Rise Set
Actual Time 7:42 AM CET 6:24 PM CET
Civil Twilight 7:14 AM CET 6:52 PM CET
Nautical Twilight 6:43 AM CET 7:23 PM CET
Astronomical Twilight 6:12 AM CET 7:54 PM CET
Moon 9:37 AM CET (2/14) 11:10 PM CET (2/14)
Length of Visible Light 11h 37m
Length of Day
10h 42m
Waxing Crescent, 19% of the Moon is Illuminated
Feb 14
Waxing Crescent
Feb 17
First Quarter
Feb 25
Full
Mar 4
Last Quarter
Mar 11
New

Hourly Weather History & Observations

Time (CET) Temp. Windchill Dew Point Humidity Pressure Visibility Wind Dir Wind Speed Gust Speed Precip Events Conditions
12:30 AM 39.2 °F - 37.4 °F 93% 30.12 in 6.2 mi East 2.3 mph - N/A   Partly Cloudy
1:00 AM 37 °F - 34 °F 84% 30.15 in 9 mi ENE 2.3 mph - -   Scattered Clouds
1:00 AM 39.2 °F - 37.4 °F 93% 30.12 in 6.2 mi NE 1.2 mph - N/A   Partly Cloudy
1:30 AM 41.0 °F - 39.2 °F 93% 30.12 in 6.2 mi NE 2.3 mph - N/A   Partly Cloudy
2:00 AM 41.0 °F 39.0 °F 39.2 °F 93% 30.12 in 6.2 mi ENE 3.5 mph - N/A   Partly Cloudy
2:30 AM 42.8 °F 40.1 °F 39.2 °F 87% 30.15 in 6.2 mi ENE 4.6 mph - N/A   Scattered Clouds
3:00 AM 42.8 °F - 41.0 °F 93% 30.15 in 6.2 mi Calm Calm - N/A   Scattered Clouds
3:30 AM 39.2 °F - 37.4 °F 93% 30.15 in 6.2 mi NE 2.3 mph - N/A   Scattered Clouds
4:00 AM 39.2 °F - 35.6 °F 87% 30.12 in 6.2 mi NNE 1.2 mph - N/A   Scattered Clouds
4:30 AM 39.2 °F - 37.4 °F 93% 30.12 in 6.2 mi NNE 1.2 mph - N/A   Partly Cloudy
5:00 AM 41.0 °F - 37.4 °F 87% 30.12 in 6.2 mi Variable 1.2 mph - N/A   Partly Cloudy
5:30 AM 41.0 °F - 39.2 °F 93% 30.12 in 6.2 mi Calm Calm - N/A   Partly Cloudy
6:00 AM 41.0 °F - 39.2 °F 93% 30.12 in 6.2 mi Calm Calm - N/A   Partly Cloudy
6:30 AM 41.0 °F - 39.2 °F 93% 30.15 in 6.2 mi Calm Calm - N/A   Partly Cloudy
7:00 AM 40 °F - 37 °F 85% 30.16 in 9 mi Calm Calm - -   Scattered Clouds
7:00 AM 41.0 °F - 39.2 °F 93% 30.15 in 6.2 mi Calm Calm - N/A   Partly Cloudy
7:30 AM 42.8 °F - 39.2 °F 87% 30.15 in 6.2 mi Calm Calm - N/A   Mostly Cloudy
8:00 AM 41.0 °F - 39.2 °F 93% 30.15 in 6.2 mi Calm Calm - N/A   Mostly Cloudy
8:30 AM 42.8 °F - 41.0 °F 93% 30.15 in 6.2 mi Calm Calm - N/A   Scattered Clouds
9:00 AM 44.6 °F - 41.0 °F 87% 30.15 in 6.2 mi Calm Calm - N/A   Partly Cloudy
9:30 AM 46.4 °F - 42.8 °F 87% 30.15 in 6.2 mi Calm Calm - N/A   Partly Cloudy
10:00 AM 50.0 °F - 42.8 °F 76% 30.18 in 6.2 mi Calm Calm - N/A   Partly Cloudy
10:30 AM 53.6 °F - 44.6 °F 72% 30.18 in 6.2 mi Variable 1.2 mph - N/A   Partly Cloudy
11:00 AM 55.4 °F - 44.6 °F 67% 30.18 in 6.2 mi Calm Calm - N/A   Partly Cloudy
11:30 AM 57.2 °F - 48.2 °F 72% 30.18 in 6.2 mi SSW 4.6 mph - N/A   Scattered Clouds
12:00 PM 59.0 °F - 50.0 °F 72% 30.18 in 6.2 mi SSW 9.2 mph - N/A   Scattered Clouds
12:30 PM 59.0 °F - 50.0 °F 72% 30.18 in 6.2 mi SSW 8.1 mph - N/A   Scattered Clouds
1:00 PM 61 °F - 46 °F 47% 30.19 in 19 mi SSW 6.9 mph - -   Scattered Clouds
1:00 PM 59.0 °F - 48.2 °F 67% 30.18 in 6.2 mi WSW 4.6 mph - N/A   Partly Cloudy
1:30 PM 60.8 °F - 48.2 °F 63% 30.18 in 6.2 mi SW 5.8 mph - N/A   Partly Cloudy
2:00 PM 59.0 °F - 48.2 °F 67% 30.15 in 6.2 mi SW 8.1 mph - N/A   Partly Cloudy
2:30 PM 60.8 °F - 48.2 °F 63% 30.15 in 6.2 mi West 5.8 mph - N/A   Partly Cloudy
3:00 PM 59.0 °F - 48.2 °F 67% 30.15 in 6.2 mi SW 6.9 mph - N/A   Partly Cloudy
3:30 PM 60.8 °F - 48.2 °F 63% 30.15 in 6.2 mi SW 4.6 mph - N/A   Partly Cloudy
4:00 PM 60.8 °F - 48.2 °F 63% 30.15 in 6.2 mi SW 4.6 mph - N/A   Scattered Clouds
4:30 PM 60.8 °F - 48.2 °F 63% 30.15 in 6.2 mi SW 6.9 mph - N/A   Scattered Clouds
5:00 PM 59.0 °F - 48.2 °F 67% 30.15 in 6.2 mi WSW 9.2 mph - N/A   Partly Cloudy
5:30 PM 57.2 °F - 50.0 °F 77% 30.15 in 6.2 mi WSW 11.5 mph - N/A   Partly Cloudy
6:00 PM 57.2 °F - 50.0 °F 77% 30.15 in 6.2 mi SW 8.1 mph - N/A   Partly Cloudy
6:30 PM 55.4 °F - 50.0 °F 82% 30.15 in 6.2 mi SW 6.9 mph - N/A   Partly Cloudy
7:00 PM 53 °F - 46 °F 69% 30.18 in 16 mi West 2.3 mph - -   Scattered Clouds
7:00 PM 53.6 °F - 48.2 °F 82% 30.18 in 6.2 mi SW 4.6 mph - N/A   Partly Cloudy
7:30 PM 53.6 °F - 50.0 °F 88% 30.18 in 6.2 mi SSE 3.5 mph - N/A   Partly Cloudy
8:00 PM 53.6 °F - 48.2 °F 82% 30.18 in 6.2 mi South 3.5 mph - N/A   Partly Cloudy
8:30 PM 48.2 °F - 44.6 °F 87% 30.18 in 6.2 mi South 2.3 mph - N/A   Partly Cloudy
9:00 PM 46.4 °F - 44.6 °F 93% 30.18 in 6.2 mi Calm Calm - N/A   Partly Cloudy
9:30 PM 46.4 °F - 44.6 °F 93% 30.18 in 6.2 mi Calm Calm - N/A   Partly Cloudy
10:00 PM 46.4 °F - 44.6 °F 93% 30.18 in 6.2 mi Calm Calm - N/A   Partly Cloudy
10:30 PM 46.4 °F - 44.6 °F 93% 30.18 in 6.2 mi NE 1.2 mph - N/A   Partly Cloudy
11:00 PM 44.6 °F - 42.8 °F 93% 30.18 in 6.2 mi NNE 1.2 mph - N/A   Partly Cloudy
11:30 PM 42.8 °F - 41.0 °F 93% 30.18 in 6.2 mi Calm Calm - N/A   Partly Cloudy